TimePDT,TemperatureF,Dew PointF,Humidity,Sea Level PressureIn,VisibilityMPH,Wind Direction,Wind SpeedMPH,Gust SpeedMPH,PrecipitationIn,Events,Conditions,WindDirDegrees,DateUTC
12:54 AM,53.1,48.9,86,30.14,10.0,East,3.5,-,N/A,,Clear,90,2011-10-22 07:54:00
1:54 AM,52.0,46.9,83,30.14,10.0,East,3.5,-,N/A,,Clear,90,2011-10-22 08:54:00
2:54 AM,53.1,48.0,83,30.13,10.0,East,3.5,-,N/A,,Clear,90,2011-10-22 09:54:00
3:54 AM,53.1,46.9,80,30.12,10.0,ESE,3.5,-,N/A,,Clear,110,2011-10-22 10:54:00
4:54 AM,53.1,48.0,83,30.11,10.0,Calm,Calm,-,N/A,,Clear,0,2011-10-22 11:54:00
5:54 AM,51.1,46.0,83,30.10,10.0,East,3.5,-,N/A,,Clear,100,2011-10-22 12:54:00
6:54 AM,51.1,44.1,77,30.10,10.0,ESE,3.5,-,N/A,,Clear,110,2011-10-22 13:54:00
7:54 AM,53.1,43.0,69,30.11,10.0,East,4.6,-,N/A,,Clear,90,2011-10-22 14:54:00
8:54 AM,60.1,46.0,60,30.12,10.0,East,3.5,-,N/A,,Clear,100,2011-10-22 15:54:00
9:54 AM,66.0,46.9,50,30.12,10.0,Calm,Calm,-,N/A,,Clear,0,2011-10-22 16:54:00
10:54 AM,73.4,48.2,41,30.08,10.0,NE,6.9,-,N/A,,Clear,50,2011-10-22 17:54:00
11:54 AM,79.0,48.0,34,30.10,10.0,NNE,8.1,-,N/A,,Clear,20,2011-10-22 18:54:00
12:54 PM,82.0,43.0,25,30.08,10.0,NNW,5.8,-,N/A,,Clear,340,2011-10-22 19:54:00
1:54 PM,72.0,55.0,55,30.06,10.0,West,3.5,-,N/A,,Clear,280,2011-10-22 20:54:00
2:54 PM,73.0,51.1,46,30.04,10.0,WNW,4.6,-,N/A,,Clear,300,2011-10-22 21:54:00
3:54 PM,75.0,48.9,40,30.02,10.0,Variable,3.5,-,N/A,,Clear,0,2011-10-22 22:54:00
4:54 PM,77.0,48.9,37,30.01,10.0,Calm,Calm,-,N/A,,Clear,0,2011-10-22 23:54:00
5:54 PM,73.0,52.0,48,30.01,10.0,Calm,Calm,-,N/A,,Clear,0,2011-10-23 00:54:00
6:54 PM,66.0,53.1,63,30.01,10.0,Calm,Calm,-,N/A,,Clear,0,2011-10-23 01:54:00
7:54 PM,64.9,48.9,56,30.01,10.0,Calm,Calm,-,N/A,,Clear,0,2011-10-23 02:54:00
8:54 PM,64.0,48.9,58,30.01,10.0,East,5.8,-,N/A,,Clear,100,2011-10-23 03:54:00
9:54 PM,63.0,48.9,60,30.02,10.0,East,4.6,-,N/A,,Clear,90,2011-10-23 04:54:00
10:54 PM,62.1,48.9,62,30.02,10.0,East,4.6,-,N/A,,Clear,90,2011-10-23 05:54:00
11:54 PM,60.1,48.0,64,30.01,10.0,Calm,Calm,-,N/A,,Clear,0,2011-10-23 06:54:00